This demonstration page uses our WeatherBlox Daily Observations layout. Learn more.

Left ArrowRight Arrow

Hourly Observations for September 27, 2021

Temp ( °F °C ) Dew Point ( °F °C ) Humidity (%) Winds ( mph kmh ) Pressure ( in mb ) Visibility ( mi km ) Precip ( " mm )
12:53 am 00:53 Clear 54 12.2 52 11.1 93 93 ESE 3 6 30.03 1017 10 16 N/A
1:53 am 01:53 Clear 53 11.7 51 10.6 93 93 N N/A 30.04 1017 10 16 N/A
2:53 am 02:53 Clear 52 11.1 51 10.6 97 97 N N/A 30.04 1017 10 16 N/A
3:53 am 03:53 Clear 53 11.7 52 11.1 96 96 N N/A 30.03 1017 10 16 N/A
4:53 am 04:53 Mostly Clear 54 12.2 52 11.1 93 93 N N/A 30.02 1017 10 16 N/A
5:53 am 05:53 Clear 54 12.2 52 11.1 93 93 N N/A 30.02 1017 10 16 N/A
6:53 am 06:53 Clear 54 12.2 52 11.1 93 93 ESE 5 7 30.02 1017 10 16 N/A
7:53 am 07:53 Sunny 54 12.2 52 11.1 93 93 ESE 3 6 30.03 1017 10 16 N/A
8:53 am 08:53 Sunny 63 17.2 55 12.8 76 76 N N/A 30.02 1017 10 16 N/A
9:53 am 09:53 Sunny 69 20.6 55 12.8 61 61 VRB 5 7 30.01 1016 10 16 N/A
10:53 am 10:53 Sunny 72 22.2 56 13.3 57 57 SW 8 13 30.00 1016 10 16 N/A
11:53 am 11:53 Sunny 76 24.4 58 14.4 54 54 WSW 9 15 29.98 1015 10 16 N/A
12:53 pm 12:53 Sunny 80 26.7 60 15.6 51 51 SW 8 13 29.96 1014 10 16 N/A
1:53 pm 13:53 Sunny 83 28.3 61 16.1 48 48 SW 8 13 29.93 1014 10 16 N/A
2:53 pm 14:53 Sunny 85 29.4 60 15.6 43 43 SW 9 15 29.91 1013 10 16 N/A
3:53 pm 15:53 Sunny 85 29.4 60 15.6 43 43 WSW 9 15 29.89 1012 10 16 N/A
4:53 pm 16:53 Sunny 82 27.8 61 16.1 49 49 SW 9 15 29.88 1012 10 16 N/A
5:53 pm 17:53 Sunny 81 27.2 61 16.1 51 51 VRB 6 9 29.88 1012 10 16 N/A
6:53 pm 18:53 Sunny 78 25.6 61 16.1 56 56 VRB 5 7 29.88 1012 10 16 N/A
7:53 pm 19:53 Clear 73 22.8 61 16.1 66 66 VRB 5 7 29.90 1013 10 16 N/A
8:53 pm 20:53 Clear 70 21.1 62 16.7 76 76 VRB 3 6 29.91 1013 10 16 N/A
9:53 pm 21:53 Clear 71 21.7 62 16.7 73 73 N N/A 29.91 1013 10 16 N/A
10:53 pm 22:53 Clear 71 21.7 63 17.2 76 76 VRB 5 7 29.91 1013 10 16 N/A
11:53 pm 23:53 Clear 69 20.6 63 17.2 81 81 VRB 3 6 29.93 1014 10 16 N/A

Powered by AerisWeather